IW2NIA-3 Weather Reports


Display with metric or nautical units.
time (UTC)temp
F
wind
direction
speed
MPH
gust
MPH
rain 1hr
in
rain 24hr
in
rain mn
in
humidity
%
barometer
mb
20260906054848 72 53 2.0 4.0 0.00 0.00 0.00 66 1021.2
20260906053345 72 34 3.0 4.0 0.00 0.00 0.00 64 1021.1
20260906051836 72 76 3.0 4.0 0.00 0.00 0.00 64 1020.9
20260906050333 72 89 2.0 4.0 0.00 0.00 0.00 63 1020.6
20260906044831 73 82 2.0 4.0 0.00 0.00 0.00 63 1020.5
20260906043344 73 94 3.0 5.0 0.00 0.00 0.00 62 1020.4
20260906041835 73 83 3.0 5.0 0.00 0.00 0.00 61 1020.3
20260906040332 73 96 4.0 6.0 0.00 0.00 0.00 62 1020.2
20260906034829 74 93 2.0 5.0 0.00 0.00 0.00 62 1020.1
20260906033343 74 84 4.0 9.0 0.00 0.00 0.00 63 1020.0
20260906031831 74 76 3.0 5.0 0.00 0.00 0.00 63 1020.0
20260906030344 74 74 4.0 6.0 0.00 0.00 0.00 61 1019.8
20260906024842 74 88 3.0 5.0 0.00 0.00 0.00 60 1019.7
20260906023340 74 89 3.0 5.0 0.00 0.00 0.00 59 1019.7
20260906021840 74 86 3.0 5.0 0.00 0.00 0.00 58 1019.6
20260906020332 74 100 4.0 5.0 0.00 0.00 0.00 59 1019.6
20260906014846 74 87 3.0 6.0 0.00 0.00 0.00 59 1019.4
20260906013341 73 86 3.0 5.0 0.00 0.00 0.00 62 1019.5
20260906011840 72 84 2.0 3.0 0.00 0.00 0.00 63 1019.3
20260906010335 72 84 2.0 3.0 0.00 0.00 0.00 61 1019.2
20260906004842 72 84 4.0 5.0 0.00 0.00 0.00 60 1019.2
20260906003338 73 80 3.0 4.0 0.00 0.00 0.00 59 1019.1
20260906001827 73 82 1.0 3.0 0.00 0.00 0.00 59 1019.1
20260906000329 73 82 2.0 4.0 0.00 0.00 0.00 58 1019.3
20260905234833 73 152 3.0 3.0 0.00 0.00 0.00 58 1019.2
20260905233343 74 184 3.0 4.0 0.00 0.00 0.00 59 1019.2
20260905231840 77 37 1.0 5.0 0.00 0.00 0.00 50 1018.7
20260905230338 77 37 3.0 6.0 0.00 0.00 0.00 50 1018.6
20260905224837 77 67 2.0 5.0 0.00 0.00 0.00 51 1018.5
20260905223342 76 72 4.0 7.0 0.00 0.00 0.00 52 1018.4
20260905221837 77 100 2.0 10.0 0.00 0.00 0.00 52 1018.3
20260905220336 77 79 5.0 7.0 0.00 0.00 0.00 53 1018.3
20260905214832 77 61 5.0 7.0 0.00 0.00 0.00 55 1018.3
20260905213330 77 88 4.0 7.0 0.00 0.00 0.00 55 1018.3
20260905211847 77 75 3.0 4.0 0.00 0.00 0.00 57 1018.3
20260905210343 78 76 2.0 3.0 0.00 0.00 0.00 54 1018.2
20260905204840 78 77 3.0 6.0 0.00 0.00 0.00 56 1017.9
20260905203335 78 71 3.0 5.0 0.00 0.00 0.00 58 1017.8
20260905201829 78 57 2.0 7.0 0.00 0.00 0.00 59 1017.7
20260905200345 79 34 4.0 7.0 0.00 0.00 0.00 58 1017.5
20260905194835 80 65 3.0 6.0 0.00 0.00 0.00 57 1017.4
20260905193347 80 58 3.0 5.0 0.00 0.00 0.00 58 1017.2
20260905191843 79 30 3.0 5.0 0.00 0.00 0.00 68 1017.0
20260905190340 78 15 2.0 4.0 0.00 0.00 0.00 72 1016.9
20260905184846 79 5 2.0 4.0 0.00 0.00 0.00 71 1016.7
20260905183333 80 5 0.0 2.0 0.00 0.00 0.00 69 1016.4
20260905181831 81 5 0.0 2.0 0.00 0.00 0.00 66 1016.3
20260905180331 82 5 1.0 3.0 0.00 0.00 0.00 64 1016.2
20260905174844 83 5 2.0 5.0 0.00 0.00 0.00 61 1016.0
20260905173335 84 332 4.0 5.0 0.00 0.00 0.00 60 1015.8
20260905171829 85 351 3.0 6.0 0.00 0.00 0.00 58 1015.8
20260905170331 85 342 4.0 8.0 0.00 0.00 0.00 58 1015.8
20260905164831 86 343 4.0 10.0 0.00 0.00 0.00 59 1015.8
20260905163343 87 319 7.0 9.0 0.00 0.00 0.00 56 1015.7
20260905161833 87 342 4.0 7.0 0.00 0.00 0.00 55 1015.6
20260905160347 88 321 4.0 5.0 0.00 0.00 0.00 55 1015.7
20260905154845 88 300 0.0 4.0 0.00 0.00 0.00 55 1015.7
20260905153344 88 315 3.0 7.0 0.00 0.00 0.00 52 1015.7
20260905151829 89 277 2.0 7.0 0.00 0.00 0.00 53 1015.7
20260905150327 89 302 3.0 7.0 0.00 0.00 0.00 52 1015.7
20260905144827 89 289 2.0 6.0 0.00 0.00 0.00 52 1015.8
20260905143347 90 294 2.0 7.0 0.00 0.00 0.00 49 1015.7
20260905141833 90 269 4.0 10.0 0.00 0.00 0.00 49 1015.8
20260905140345 90 329 5.0 9.0 0.00 0.00 0.00 50 1015.8
20260905134845 90 326 3.0 7.0 0.00 0.00 0.00 48 1015.8
20260905133329 90 319 3.0 7.0 0.00 0.00 0.00 49 1016.1
20260905131831 90 265 3.0 11.0 0.00 0.00 0.00 48 1016.2
20260905130346 90 285 6.0 9.0 0.00 0.00 0.00 54 1016.3
20260905124841 89 355 3.0 6.0 0.00 0.00 0.00 53 1016.4
20260905123339 88 317 5.0 7.0 0.00 0.00 0.00 52 1016.5
20260905121837 88 30 4.0 9.0 0.00 0.00 0.00 55 1016.6
20260905120333 88 48 4.0 7.0 0.00 0.00 0.00 52 1016.7
20260905114830 87 24 6.0 10.0 0.00 0.00 0.00 54 1017.0
20260905113340 86 319 2.0 12.0 0.00 0.00 0.00 56 1016.9
20260905111842 86 287 4.0 7.0 0.00 0.00 0.00 54 1017.1
20260905110337 86 325 4.0 10.0 0.00 0.00 0.00 52 1017.2
20260905104828 85 245 4.0 9.0 0.00 0.00 0.00 54 1017.0
20260905103342 84 269 2.0 7.0 0.00 0.00 0.00 55 1016.9
20260905101831 83 301 1.0 9.0 0.00 0.00 0.00 57 1017.0
20260905100338 82 308 2.0 6.0 0.00 0.00 0.00 58 1017.1
20260905094839 82 317 2.0 6.0 0.00 0.00 0.00 61 1017.2
20260905093336 81 316 1.0 5.0 0.00 0.00 0.00 62 1017.2
20260905091831 80 315 2.0 4.0 0.00 0.00 0.00 66 1017.1
20260905090346 79 318 4.0 6.0 0.00 0.00 0.00 68 1017.2
20260905084843 78 328 3.0 6.0 0.00 0.00 0.00 70 1017.1
20260905083337 77 319 3.0 5.0 0.00 0.00 0.00 71 1017.0
20260905081843 77 328 3.0 4.0 0.00 0.00 0.00 71 1017.0
20260905080345 76 322 4.0 5.0 0.00 0.00 0.00 73 1016.9
20260905074842 76 355 1.0 4.0 0.00 0.00 0.00 75 1016.8
20260905073338 75 348 2.0 4.0 0.00 0.00 0.00 76 1016.6
20260905071831 74 355 3.0 4.0 0.00 0.00 0.00 78 1016.7
20260905070343 73 360 1.0 4.0 0.00 0.00 0.00 78 1016.6
20260905064831 73 12 0.0 0.0 0.00 0.00 0.00 78 1016.5
20260905063330 72 11 0.0 3.0 0.00 0.00 0.00 79 1016.4
20260905061843 70 9 3.0 4.0 0.00 0.00 0.00 82 1016.5
20260905060328 69 9 1.0 1.0 0.00 0.00 0.00 84 1016.4